Weather in Mari Shoi

Russia / Mari El Republic     56°41′13″N   49°05′43″E
temp.,
°C
wind,
m/s
gust,
m/s
humid.,
%
clouds,
%
prec.,
mm/h
press.,
hPa
HPBL,
m
27 february, sat
sat2700:00−15se81495100 4.6 1001673
03:00−14ese61295100 6.8 1000555
06:00−15e61095100 1.8 999507
09:00−14ene61094100 2.3 1000496
12:00−13ene6991100 0.3 1001614
15:00−13ne6991100 0.4 1003610
18:00−14nne61192100 0.1 1004484
21:00−16n51196100 0.2 1006294
28 february, sun
sun2800:00−18n51097100 0.0 1006215
03:00−20n5109886 0.1 1008211
06:00−20n5109894 0.0 1009211
09:00−19n589584 0.0 1010240
12:00−16n579344 0.0 1010334
15:00−14n589263 0.0 1012485
18:00−18n3697100 0.0 1014105
21:00−20n349977 0.1 101670
1 march, mon
mon100:00−21n34980 0.0 101862
03:00−22n34980 0.0 102050
06:00−23n33980 0.0 102136
09:00−19nnw22940 0.0 1022108
12:00−14wnw238717 0.0 1021290
15:00−12w349040 0.0 1020309
18:00−14sw369756 0.0 1018116
21:00−14sw499778 0.0 1016246
2 march, tue
tue200:00−12ssw51196100 0.1 1012271
03:00−10ssw61394100 0.4 1007381
06:00−8ssw61294100 0.8 1003460
09:00−6ssw61295100 1.5 1000450
12:00−1ssw5998100 0.8 998453
15:000w4799100 2.0 997426
18:00−1w3798100 0.4 997311
21:00−2nnw51194100 1.6 998480
3 march, wed
wed300:00−6nw5109591 0.0 999252
03:00−8nw499480 0.1 1000170
06:00−9nw369860 0.0 1000132
09:00−6nnw489577 0.1 1002300
12:00−4nnw589396 0.1 1003600
15:00−4nnw7118998 0.4 1005770
18:00−8nw4119033 0.0 1007254
21:00−8nw5129448 0.1 1009557